Theta_e
314 315 315 316 316 316 316 317 317 317 317 317 316 315 315 315 314 313 312 311 310 309 308 308 309 310 309 310 310 310 310 310 310 310 310 310 309 309 309 309 308 308 308 309 309 309 308 308 308 307 307 307 307 307 307 307 307 307 307 308 308 308 308 308 308 308 307 307 307 307 307 307 306 306 306 305 305 304 304 303 303 303 302 302 301 301
315 314 314 315 315 316 316 317 317 317 317 316 315 315 314 313 312 312 312 311 311 310 308 308 309 309 309 309 309 309 309 310 310 310 309 309 309 308 308 308 308 308 308 308 308 308 307 307 306 306 306 306 306 306 307 307 306 307 307 307 308 308 308 308 308 307 306 306 306 306 306 305 305 305 304 304 304 303 303 303 302 301 301 301 300 300
314 314 314 314 315 315 316 316 316 315 315 314 313 313 312 311 311 311 311 311 310 309 308 308 308 308 309 309 309 309 309 310 310 309 309 308 308 308 307 307 307 307 307 307 307 307 306 306 305 305 305 305 305 306 306 306 306 306 306 306 307 307 307 308 307 307 306 306 305 305 305 304 304 303 303 303 302 302 302 301 301 300 300 300 299 299
312 312 313 313 313 314 314 313 313 313 314 313 312 311 310 310 309 309 310 310 309 308 307 307 307 307 307 308 308 309 309 309 309 309 308 308 307 307 306 306 306 306 306 306 306 305 305 305 304 304 304 304 304 305 305 305 305 305 305 306 306 306 306 307 307 306 306 305 305 304 303 303 302 302 302 301 301 301 301 300 300 300 299 299 299 299
310 310 310 311 311 311 311 311 311 312 312 312 311 310 309 308 308 308 309 309 308 307 306 306 306 306 306 307 308 309 309 309 309 308 308 307 307 306 306 305 305 305 305 304 304 304 303 303 303 303 304 304 304 304 304 305 305 304 305 305 305 305 305 306 306 305 305 304 304 303 302 301 301 301 301 300 300 300 299 299 299 299 298 298 298 298
309 308 308 309 309 310 310 310 310 310 310 310 309 308 307 307 307 307 308 307 307 306 306 306 306 306 306 307 308 308 309 308 308 307 307 306 306 305 305 305 304 304 303 303 303 302 302 302 302 303 303 303 303 303 303 304 304 304 304 304 304 304 304 304 304 304 304 303 303 302 301 301 300 300 300 300 299 299 299 298 298 298 298 298 298 298
308 307 307 307 308 308 309 309 310 309 308 308 307 306 306 306 306 306 306 306 306 305 305 305 305 306 306 307 308 308 308 307 307 306 306 305 305 304 304 304 303 303 302 302 302 301 301 301 302 302 302 302 302 302 302 303 303 303 304 303 303 303 303 303 303 303 303 302 302 301 301 300 300 300 300 299 299 299 298 298 297 297 297 297 297 297
307 306 305 306 306 307 308 308 308 308 307 306 305 304 304 304 304 305 305 305 305 305 305 305 305 306 306 307 307 307 307 306 305 305 305 304 304 303 303 303 302 302 302 301 301 301 301 301 301 301 301 301 301 301 301 302 302 302 302 302 302 302 302 302 302 302 302 301 301 300 300 300 300 299 299 299 299 299 298 298 297 297 296 296 296 296
307 306 305 305 305 305 305 306 306 306 305 305 304 303 303 302 303 303 304 304 304 304 304 304 305 305 306 307 307 306 305 305 304 304 303 303 303 302 302 302 301 301 301 300 300 300 300 300 300 300 300 300 300 300 301 301 301 301 301 301 301 301 301 301 301 301 300 300 300 300 299 299 299 299 298 298 298 298 298 297 297 297 296 296 296 296
307 306 305 304 304 304 304 304 304 304 304 304 303 302 302 302 302 302 302 302 303 303 303 304 304 305 306 306 305 305 304 304 303 303 302 302 302 301 301 301 301 300 300 300 299 299 299 299 299 299 299 299 299 299 299 300 300 300 300 300 300 300 300 300 300 300 299 299 299 299 299 298 298 298 298 297 297 297 297 297 296 296 296 295 295 295
306 305 305 304 304 303 303 303 303 303 303 302 302 302 302 302 302 301 301 301 301 302 302 303 304 304 305 305 304 304 303 303 302 302 302 301 301 300 300 300 300 300 300 299 299 299 298 298 298 298 298 298 298 298 298 298 299 299 299 299 299 299 299 299 299 299 299 299 298 298 298 298 297 297 297 296 296 296 296 295 295 295 294 294 294 294
305 304 304 303 302 302 302 302 302 302 302 301 301 301 301 301 301 301 301 301 300 300 301 302 303 303 304 304 303 303 303 302 302 302 301 301 301 300 300 300 300 299 299 299 298 298 298 298 298 298 298 298 298 298 297 297 298 298 298 298 298 298 298 298 298 298 298 298 298 297 297 296 296 296 296 295 295 294 294 293 293 293 292 292 292 292
305 304 303 302 302 302 302 301 300 300 300 300 301 301 302 301 301 301 301 301 301 300 300 301 301 302 303 303 303 302 302 302 302 301 301 301 301 301 300 300 300 299 299 298 298 298 298 297 297 298 298 298 298 298 297 297 297 297 297 297 297 297 297 296 297 297 296 296 296 296 295 295 295 294 294 293 293 292 291 291 290 290 290 290 290 290
304 303 302 302 303 303 303 302 300 300 300 300 301 302 303 302 301 300 300 300 300 300 300 300 300 301 301 301 302 302 302 301 301 301 301 301 301 300 300 300 299 299 298 298 298 298 297 297 297 297 297 298 298 298 297 297 296 296 296 296 296 296 295 295 295 295 295 295 294 294 294 293 293 292 292 291 290 290 289 288 288 288 288 288 288 288
303 302 302 303 303 303 303 302 301 301 301 301 301 302 302 301 300 300 299 299 299 299 299 299 299 299 300 300 300 301 301 301 301 300 300 300 300 300 299 299 299 298 298 298 298 297 297 297 297 297 297 297 297 297 297 297 296 296 295 295 295 295 294 294 294 294 293 293 293 292 292 291 291 290 290 289 288 288 287 287 287 287 287 287 287 287
302 302 302 303 303 302 302 301 301 301 301 301 301 301 301 300 300 299 299 298 298 298 297 297 297 297 298 298 299 299 300 300 300 300 300 300 299 299 299 299 298 298 298 297 297 297 297 296 296 296 296 296 297 297 297 296 296 296 295 295 294 294 293 293 293 292 292 292 291 291 290 290 289 289 288 288 287 287 286 287 287 287 287 287 287 287
302 301 302 302 302 302 301 301 300 300 300 300 300 300 300 299 299 299 299 298 297 297 297 297 297 297 297 297 298 298 299 299 299 299 299 299 299 298 298 298 298 298 297 297 296 296 296 296 296 296 296 296 296 296 296 296 296 295 295 294 294 293 293 292 292 292 291 291 290 290 290 289 289 289 288 288 287 287 287 287 287 287 287 287 288 288
301 301 301 301 302 302 301 300 300 300 299 299 299 299 299 299 299 298 298 297 297 297 297 297 298 298 298 298 298 298 298 298 298 298 298 298 298 298 298 298 297 297 297 297 296 296 296 296 295 295 295 295 295 295 295 295 295 295 294 294 293 293 292 292 292 291 291 290 290 290 290 290 289 289 289 288 287 287 287 288 288 288 288 288 289 289
301 300 300 301 301 301 300 300 299 299 299 298 298 298 298 298 298 298 298 297 297 297 297 298 298 298 298 299 299 299 298 298 298 298 297 297 298 298 297 297 297 297 296 296 296 296 295 295 295 295 295 295 295 295 295 295 294 294 294 293 293 292 292 292 291 291 290 290 290 290 290 290 290 289 289 288 287 287 287 288 288 288 289 289 290 290
300 299 299 300 300 299 299 299 299 298 298 298 298 297 297 297 297 297 297 297 297 297 297 298 298 298 298 299 299 299 298 298 298 298 297 297 297 297 297 297 297 296 296 296 296 296 295 295 295 295 295 295 295 294 294 294 294 294 293 293 292 292 291 291 290 290 289 289 289 290 290 290 290 290 289 289 288 288 288 288 288 289 289 290 290 291
299 299 298 298 298 298 298 298 298 298 298 298 297 296 296 296 296 296 296 296 296 297 297 297 298 298 298 298 299 299 298 298 297 297 297 296 296 296 297 296 296 296 295 295 295 295 295 295 295 294 294 294 294 294 294 293 293 292 292 291 291 291 290 290 289 289 289 288 289 289 289 289 289 290 289 289 288 288 288 289 289 289 290 290 290 291
298 298 298 298 298 297 298 298 298 298 298 297 297 296 295 295 295 295 295 296 296 296 296 297 298 297 297 298 298 298 297 297 297 296 296 295 295 296 296 296 295 295 295 295 295 295 295 295 294 294 294 294 293 293 293 292 292 291 290 290 289 289 289 289 288 288 288 288 288 288 289 289 289 289 290 289 289 289 288 289 289 289 290 290 291 291
298 298 297 297 297 297 297 297 297 297 297 297 297 296 296 296 296 296 296 296 296 296 296 296 296 296 297 297 297 297 296 296 296 296 295 295 295 296 295 295 295 294 294 293 294 294 295 294 294 294 293 293 292 292 291 290 290 289 289 289 288 288 288 288 288 288 288 287 287 288 288 289 289 289 290 289 289 289 289 289 289 289 290 290 291 291
296 296 296 296 296 296 297 297 297 297 297 297 297 296 296 296 296 296 296 296 296 296 296 296 295 295 295 295 296 296 295 295 295 295 294 295 295 294 294 294 294 294 293 293 293 294 294 294 293 293 292 292 291 290 290 289 289 288 288 288 288 288 288 288 288 288 288 287 287 288 288 289 289 289 290 289 289 289 289 289 289 289 290 290 290 291
295 295 295 295 296 296 296 296 297 297 297 297 296 296 295 295 295 295 295 295 295 295 295 294 293 293 293 294 294 294 294 294 294 294 293 294 294 294 293 293 293 293 292 292 293 294 294 293 293 292 292 291 291 290 290 289 289 288 288 288 287 288 288 288 288 288 288 287 287 288 288 289 289 289 289 289 289 289 289 289 289 289 290 290 290 290
293 294 294 294 295 295 296 296 296 296 296 296 296 296 295 295 294 294 294 294 294 294 293 293 292 292 292 292 293 293 294 293 293 293 293 292 292 292 292 293 293 292 291 291 293 293 293 293 292 292 291 291 291 290 290 290 289 289 288 288 287 288 288 288 288 288 288 287 287 288 288 289 289 289 289 289 289 289 289 289 289 289 289 289 290 290
292 292 292 293 293 294 294 295 295 296 296 296 296 296 295 294 294 293 293 293 293 293 292 293 294 293 292 291 291 292 293 293 293 293 292 292 291 290 291 292 292 292 291 292 292 293 292 292 291 291 291 291 291 290 290 290 289 289 288 288 287 287 288 288 288 288 287 287 287 288 288 289 289 289 289 289 289 289 289 289 289 289 289 289 289 289
291 290 290 291 292 292 293 294 294 295 295 295 295 295 294 293 293 293 292 292 292 292 292 293 294 294 293 292 291 291 292 292 293 292 292 291 290 290 290 291 291 291 291 291 291 291 291 291 290 290 290 290 290 290 289 289 289 288 288 287 287 287 287 287 287 287 287 287 287 288 288 289 289 289 290 290 289 289 289 289 289 289 289 289 289 289
290 290 289 290 290 291 292 293 293 293 294 294 294 294 293 293 292 292 292 292 292 292 292 293 294 294 293 293 291 290 291 292 292 292 292 290 289 290 290 290 290 290 290 290 289 289 290 290 289 289 289 289 289 289 288 288 288 287 287 287 287 286 286 286 286 286 286 286 287 288 288 289 289 289 290 290 289 289 289 289 289 289 289 289 289 289
289 289 289 289 289 290 291 291 291 292 292 293 293 293 293 292 292 292 292 292 292 292 292 293 293 293 292 291 291 291 291 291 292 292 291 290 289 289 289 290 289 289 289 289 289 289 289 288 288 288 288 288 288 288 287 287 287 286 286 286 285 285 285 284 284 285 285 286 287 288 289 289 289 289 289 289 289 289 289 289 289 289 289 289 289 289
289 289 288 288 289 289 289 290 290 290 291 291 292 292 292 292 292 291 291 291 291 291 292 293 292 292 291 292 293 293 293 291 291 292 291 290 289 289 289 289 289 289 288 289 290 290 290 288 287 286 286 286 286 286 286 286 286 286 285 285 284 284 284 283 283 284 285 286 287 288 289 289 289 289 289 289 289 289 289 289 289 289 289 289 289 289
289 289 288 288 288 288 289 289 289 289 289 290 290 290 291 290 290 290 290 290 290 290 291 292 292 291 291 292 294 294 293 290 290 290 290 289 288 288 288 289 289 288 288 288 289 289 290 289 287 285 285 285 285 285 285 285 285 285 284 284 284 284 284 284 284 284 286 287 288 288 289 289 289 289 289 289 289 289 289 289 289 289 289 289 289 289
289 289 288 288 288 288 288 288 288 288 288 289 289 289 289 288 288 288 288 289 289 289 290 290 290 290 290 290 291 292 290 290 289 289 289 288 288 288 288 288 288 288 287 287 287 288 288 288 286 285 285 284 284 284 284 284 284 284 284 283 283 284 285 285 285 285 286 287 288 288 288 289 289 289 289 289 289 289 289 289 289 289 290 290 289 289
289 289 288 288 288 288 288 288 288 288 288 288 288 288 288 288 287 287 287 287 288 288 288 288 288 288 288 289 289 289 289 290 289 288 287 288 287 288 288 287 287 287 286 286 286 286 286 285 285 285 285 285 285 284 284 284 284 284 284 283 283 284 285 285 286 286 287 287 287 288 288 288 288 288 288 288 289 289 289 289 289 289 290 290 289 289
289 289 289 288 288 288 288 288 288 288 288 288 288 288 288 288 287 287 287 287 287 287 287 287 287 287 287 287 288 288 288 288 288 287 287 287 287 287 287 287 286 286 285 285 285 285 285 285 285 285 286 286 285 285 285 284 284 284 284 283 283 283 284 285 285 286 287 287 287 287 287 287 288 288 288 288 289 289 289 289 289 289 289 290 289 289
289 289 289 289 288 288 288 288 288 288 288 288 288 287 288 287 287 287 287 287 287 286 286 286 286 286 286 286 286 286 286 286 286 286 286 286 286 286 286 286 285 285 285 285 285 285 286 285 285 285 285 286 286 286 285 285 284 284 284 283 283 283 284 284 284 285 286 286 287 287 287 287 287 288 288 288 288 289 289 289 289 289 289 290 289 289
290 290 289 289 288 288 288 288 288 287 287 287 287 287 287 287 287 287 287 286 286 286 286 285 285 285 285 285 285 285 285 285 285 285 285 285 285 285 285 285 285 285 285 285 285 285 285 286 285 285 285 285 286 286 286 285 284 284 284 284 283 283 283 284 284 285 286 286 286 286 287 287 287 288 288 288 288 288 289 289 289 289 290 290 290 289
290 290 290 289 288 288 288 288 288 287 287 287 287 287 287 287 287 287 286 286 286 286 285 285 285 285 285 284 284 284 284 284 284 284 284 284 284 284 284 284 284 284 284 285 285 285 285 285 286 286 285 285 286 286 285 285 284 284 284 284 284 284 284 284 284 285 285 285 285 285 286 286 286 287 287 287 288 288 288 289 289 289 289 290 290 290
290 290 290 289 289 288 288 288 287 287 286 286 286 286 286 286 286 286 286 286 286 285 285 285 285 285 284 284 284 284 283 283 283 283 283 283 283 283 284 284 284 284 284 284 284 284 284 285 286 286 286 286 286 285 285 284 284 284 284 284 284 284 284 284 284 285 285 285 284 284 285 285 285 286 287 287 287 288 288 288 289 289 289 289 289 289
290 290 289 289 289 288 288 287 287 286 286 286 286 285 285 285 285 285 285 285 285 285 285 285 285 284 284 284 284 284 283 283 282 282 282 282 282 282 283 283 283 283 283 284 284 284 284 284 285 286 286 286 286 285 285 284 284 284 285 284 284 284 284 284 285 285 285 284 284 284 284 284 284 285 286 286 287 287 288 288 288 288 289 289 289 289
290 290 289 289 288 287 287 286 286 285 285 285 285 285 285 285 285 285 285 285 285 285 285 285 284 284 284 284 284 283 283 283 283 282 282 282 281 281 282 282 282 283 283 283 284 283 283 284 284 285 285 285 285 285 285 284 283 283 284 284 285 285 284 284 284 285 285 285 284 284 284 284 284 284 284 285 286 286 287 287 288 288 288 288 289 289
290 290 290 289 288 287 287 286 286 285 285 285 285 285 285 284 284 284 284 284 284 284 284 284 284 284 284 284 284 284 283 283 283 283 282 282 281 281 281 281 281 282 282 283 283 283 283 283 283 284 284 284 284 284 284 284 284 283 283 284 285 285 285 284 284 284 285 285 285 285 284 284 284 284 284 284 285 285 286 287 287 287 287 288 288 288
290 290 290 289 288 288 287 287 287 286 286 286 286 286 285 285 285 284 284 284 284 284 284 284 284 284 284 284 284 284 284 283 283 283 283 282 282 281 281 281 281 281 281 282 282 282 283 283 283 283 284 284 284 284 284 284 284 283 283 284 284 285 285 284 284 284 284 284 284 285 284 284 284 284 284 284 284 285 285 286 286 286 287 287 287 287
290 290 289 289 289 288 288 288 287 287 287 287 286 286 286 286 285 285 284 284 284 284 284 284 284 284 284 284 284 284 284 284 283 283 283 283 282 282 282 281 281 281 281 281 281 282 282 282 282 283 283 283 283 283 284 284 284 284 284 284 284 284 285 285 284 284 283 284 284 284 284 284 284 284 284 284 284 284 285 285 285 286 286 286 286 286
290 289 289 289 289 288 288 288 288 287 287 287 287 287 286 286 286 286 285 285 284 284 283 283 283 283 284 284 284 284 284 283 283 283 283 283 282 282 282 282 281 281 281 280 281 281 282 282 282 283 283 282 282 282 283 283 284 284 284 284 284 284 284 284 284 284 283 283 283 283 284 284 284 284 284 284 284 284 284 284 285 285 285 285 285 285
289 289 288 288 288 288 288 287 287 287 287 287 286 286 286 286 286 286 286 285 285 284 284 283 283 283 284 284 284 284 284 283 283 283 283 283 283 282 282 282 282 282 281 281 281 281 281 281 282 282 282 282 282 282 282 283 283 284 284 284 284 284 283 284 284 283 283 283 283 283 283 283 283 283 283 283 283 283 283 283 283 283 284 284 284 284
289 288 288 288 287 287 287 287 287 286 286 286 286 286 286 286 286 286 286 286 285 284 284 284 283 283 284 284 284 284 284 284 283 283 282 283 283 282 282 282 282 282 282 281 281 281 280 280 281 281 281 281 281 282 282 282 283 283 284 284 284 284 284 284 284 283 283 283 282 283 283 283 283 282 282 282 282 282 283 282 282 283 283 283 283 283
288 288 288 287 287 286 286 286 286 286 285 285 285 285 285 285 286 286 285 285 285 284 284 283 283 283 284 284 284 284 284 284 284 283 282 282 282 282 282 282 282 282 282 281 281 281 281 280 280 280 280 280 281 281 282 282 282 283 283 283 284 284 284 284 284 283 283 283 282 282 282 282 282 282 282 282 283 283 283 283 282 282 282 282 283 283
287 288 288 287 287 287 286 286 286 286 285 285 285 285 285 285 285 285 284 284 284 284 283 284 284 284 284 284 284 284 284 284 284 283 283 282 282 282 282 282 282 281 281 281 281 280 280 280 280 280 280 280 280 280 281 282 282 282 283 283 283 283 283 284 283 283 283 283 282 282 282 282 282 282 282 282 283 283 283 283 283 283 282 282 282 282
287 287 287 287 287 286 286 286 286 286 285 285 285 285 285 284 284 284 283 283 283 283 283 283 284 284 284 284 284 284 284 283 283 283 283 282 281 281 281 281 281 280 280 280 280 280 280 280 280 280 280 280 280 280 280 281 281 282 282 282 282 283 283 283 283 283 283 283 283 282 282 282 282 282 282 282 283 283 283 283 283 283 282 282 282 282
287 286 286 286 286 286 286 286 286 285 285 285 285 285 285 284 283 283 283 282 282 282 282 282 283 283 284 284 284 284 284 283 283 283 283 282 281 281 281 280 280 280 280 280 280 280 280 280 281 281 280 280 280 280 280 280 281 281 282 282 282 282 282 282 282 282 282 282 282 282 282 282 282 282 282 282 282 282 283 283 283 283 282 282 282 282
Wind_Speed
14 14 15 15 16 17 18 18 17 17 17 17 18 20 22 23 22 20 18 16 15 14 14 13 13 14 14 15 15 16 16 17 17 17 16 15 14 14 13 13 13 12 12 13 12 12 10 9 8 7 6 6 5 5 5 4 4 3 3 4 5 5 6 7 7 8 8 8 8 8 9 9 10 10 11 10 10 10 10 9 9 8 7 7 6 5
16 16 16 16 16 16 17 17 16 15 16 17 19 20 21 21 20 19 17 16 15 14 14 14 15 15 14 14 15 16 17 17 17 16 16 15 14 14 14 13 13 13 13 13 12 11 9 8 7 7 6 6 6 6 6 6 5 4 4 5 5 6 6 7 7 7 7 7 7 7 8 9 10 10 10 10 9 9 8 8 7 6 6 6 6 5
16 16 16 16 16 16 16 15 15 15 16 18 19 20 19 18 17 16 16 16 15 15 15 15 16 15 15 14 15 16 17 17 17 17 16 15 15 14 14 13 13 13 13 13 12 11 10 9 8 7 7 8 8 8 8 8 7 7 6 6 7 7 7 8 8 8 8 8 8 9 9 10 10 9 9 8 8 7 7 7 6 6 6 6 6 6
11 11 12 13 13 14 14 14 15 16 18 18 19 19 18 16 15 15 16 16 16 16 16 16 17 16 16 15 15 15 17 18 18 17 17 16 15 14 14 13 13 12 12 12 12 11 10 9 8 8 8 9 9 10 9 9 9 9 9 9 9 9 10 10 11 11 11 11 11 11 11 10 9 9 8 8 7 7 7 7 7 7 7 6 6 6
8 9 10 10 11 12 12 14 15 17 18 18 18 17 16 14 15 16 17 16 16 16 16 17 17 17 17 16 15 15 17 19 18 18 17 16 15 15 14 13 12 11 11 10 10 10 10 9 9 9 9 9 10 10 9 9 10 10 10 10 11 11 12 12 12 12 13 13 13 12 12 11 10 9 9 8 8 8 8 8 8 8 8 7 7 6
9 9 9 9 9 11 12 13 15 16 17 17 16 16 15 15 16 17 16 15 15 15 16 17 17 17 17 16 15 16 18 19 19 18 18 17 16 15 14 12 11 10 9 9 9 9 9 10 9 9 9 9 9 9 9 10 10 11 11 11 11 12 12 13 13 13 13 14 14 14 13 12 12 11 10 10 9 9 9 8 8 8 8 8 7 7
10 10 10 9 10 12 12 13 14 15 15 15 14 15 15 16 16 16 16 15 15 15 16 16 16 16 16 15 15 16 19 19 19 18 17 16 15 14 13 11 10 9 9 8 9 9 10 10 10 9 9 9 9 9 9 10 11 12 12 12 12 13 13 14 14 14 14 14 15 14 14 13 12 12 11 11 10 10 10 9 8 8 7 7 7 7
11 11 11 11 12 13 13 14 14 14 14 13 13 13 14 15 16 15 15 15 15 15 16 16 16 16 16 16 16 16 18 19 18 17 16 15 14 12 11 10 9 9 8 8 8 9 10 10 10 9 9 9 9 9 10 11 12 12 13 13 13 14 14 15 15 15 14 14 14 13 13 12 11 11 11 11 11 11 11 10 9 8 7 7 7 7
13 12 12 12 12 12 12 13 14 14 13 13 12 11 11 12 13 15 15 15 16 16 16 16 16 16 16 18 18 18 18 18 17 16 15 14 13 11 10 9 8 8 8 8 8 9 9 9 9 9 9 9 9 10 10 11 12 12 13 13 13 14 14 14 14 14 14 13 12 12 11 11 11 11 12 12 12 12 12 11 11 10 9 8 7 6
14 13 12 12 12 11 10 10 11 12 12 12 12 11 9 9 9 11 13 14 16 16 16 16 16 17 18 19 20 20 19 18 17 16 14 12 11 10 9 8 8 8 8 8 8 8 8 8 8 8 8 9 9 9 10 11 11 12 12 12 13 13 13 13 13 13 13 12 12 12 12 12 12 12 12 12 12 12 12 12 12 12 11 10 9 7
12 12 12 11 12 12 11 10 11 11 11 12 13 12 10 9 9 9 9 11 13 15 16 17 18 19 19 20 20 20 20 19 19 17 16 13 12 11 10 10 9 8 7 7 8 8 8 8 8 8 8 8 8 9 10 11 11 11 12 12 12 12 13 13 13 13 12 12 12 12 13 13 13 13 13 13 13 13 13 13 13 13 13 12 11 9
9 9 9 10 10 10 10 11 12 12 11 11 10 10 11 11 10 10 9 9 11 13 15 17 18 20 21 21 21 21 20 20 19 18 17 15 14 13 12 11 10 10 9 8 8 9 9 9 9 9 9 8 9 10 11 11 12 12 12 12 12 12 12 12 12 12 12 12 12 13 13 14 14 14 14 14 14 14 14 14 14 14 13 13 12 11
8 8 8 8 8 7 8 9 9 10 10 9 9 8 9 11 12 12 10 8 9 12 15 17 18 19 21 22 22 21 21 20 19 18 17 16 15 13 13 12 12 12 11 10 10 10 10 10 10 10 10 9 10 11 11 12 12 13 13 13 13 12 12 12 12 12 12 12 13 13 13 14 14 14 14 14 13 13 13 13 13 13 13 12 12 12
7 7 6 6 6 6 6 7 7 8 9 9 9 9 8 10 12 12 11 9 10 12 15 16 17 18 19 20 21 21 21 20 19 18 17 16 15 14 13 13 13 13 12 12 11 11 10 10 10 11 11 10 11 11 12 12 12 12 12 12 13 12 12 12 11 11 12 12 12 12 13 13 13 13 13 13 12 12 12 12 12 12 12 12 12 11
5 5 5 5 5 6 6 7 7 8 9 10 11 11 11 10 11 12 11 10 10 12 14 15 17 17 17 17 19 20 20 20 19 18 17 16 15 14 14 14 14 14 14 13 12 11 10 10 10 10 11 11 11 12 13 13 13 13 12 12 12 12 12 11 11 11 11 11 11 11 11 12 12 12 12 12 11 11 11 11 11 11 11 11 11 11
5 5 5 5 6 6 7 8 8 9 9 11 13 13 12 10 10 11 11 11 11 11 12 11 11 11 13 16 17 18 18 18 18 17 17 16 15 15 14 14 15 15 15 14 13 12 11 11 10 10 11 11 12 13 13 13 13 13 12 12 12 12 11 11 11 10 10 10 10 10 10 11 11 11 11 11 11 10 10 10 10 10 10 10 10 10
4 5 5 6 6 6 7 9 9 10 10 12 13 13 12 11 11 11 11 12 11 11 11 10 7 5 6 10 14 16 16 16 16 16 16 16 16 15 15 15 15 16 15 15 15 14 13 12 12 12 12 13 13 14 13 13 13 13 12 12 12 12 11 11 10 10 9 9 9 9 10 10 10 10 11 11 10 9 9 9 9 9 9 9 9 9
4 5 5 6 6 6 7 8 9 10 11 12 13 14 14 13 12 12 12 13 12 11 11 11 9 6 5 6 11 15 17 16 16 15 15 15 16 16 15 15 16 16 16 16 15 15 14 13 13 13 13 14 14 14 14 14 14 13 13 13 13 12 12 11 10 10 10 10 10 10 10 10 10 10 11 10 10 9 8 8 8 8 8 7 8 8
4 4 5 5 6 6 7 9 10 11 11 11 12 12 13 13 13 13 13 13 13 13 12 12 12 11 8 8 11 15 18 18 17 15 14 14 16 17 17 16 16 17 17 16 16 15 14 14 14 14 14 15 15 15 15 15 15 15 14 14 14 13 13 12 12 11 11 10 10 10 10 10 10 11 11 11 10 9 8 8 8 7 7 7 7 8
4 4 4 5 5 6 7 8 9 10 10 10 10 10 11 12 13 13 14 14 14 14 14 13 12 12 12 12 12 14 16 18 18 17 15 14 15 18 18 18 17 17 17 17 17 16 15 14 14 14 15 15 15 16 16 16 16 16 15 15 15 14 14 13 13 13 12 12 11 11 11 11 11 11 11 11 10 9 8 8 7 7 6 6 7 7
3 4 5 6 5 5 5 7 8 8 8 8 8 9 10 11 12 13 13 13 14 14 14 13 12 12 14 14 12 12 14 16 17 17 16 14 15 18 20 19 18 18 18 18 18 17 15 15 15 15 16 16 16 16 16 16 16 16 16 16 15 15 14 14 14 13 13 13 13 12 12 12 11 11 11 11 10 9 8 8 7 6 6 6 7 7
3 3 4 5 5 5 5 5 6 7 6 6 6 7 8 9 10 11 12 12 13 13 13 11 12 13 15 15 14 12 12 13 16 17 15 12 12 15 19 19 19 19 18 17 17 17 16 16 16 16 17 17 17 17 17 17 17 17 16 16 15 15 15 14 14 14 14 14 13 13 12 12 12 11 11 11 10 9 8 8 7 7 7 7 7 8
3 4 4 4 5 5 6 6 6 6 5 5 5 6 7 7 8 9 10 11 11 11 13 14 15 16 16 15 14 13 12 12 14 15 13 10 9 11 16 17 18 19 18 16 16 17 17 17 17 17 17 17 17 17 17 17 17 17 16 16 15 15 14 14 14 14 14 14 14 13 12 12 12 11 11 10 10 9 9 8 8 7 7 7 7 8
2 3 3 4 4 4 5 5 5 5 5 5 6 7 8 8 8 9 10 10 11 12 14 15 15 14 14 14 14 13 13 12 12 13 13 10 9 10 13 15 17 18 17 16 17 17 17 18 18 18 18 18 18 17 17 17 17 17 16 16 15 15 15 14 14 14 14 14 13 13 12 12 12 12 11 11 10 10 9 9 8 8 8 8 8 9
3 3 3 3 4 4 4 4 4 5 5 5 6 7 7 8 8 9 9 10 11 12 12 12 10 9 11 13 13 13 13 13 12 12 13 9 7 9 12 13 14 15 15 15 17 18 17 18 18 19 19 19 18 18 17 17 17 17 16 16 16 15 15 15 14 14 14 14 13 12 12 12 12 12 11 11 10 10 10 9 9 9 9 9 9 9
3 3 3 3 4 4 4 3 4 4 4 5 5 6 7 8 8 9 9 9 10 10 9 8 6 7 9 11 12 13 14 14 14 13 14 10 7 8 11 12 12 13 13 15 16 16 16 17 19 19 20 20 19 19 18 18 18 17 17 16 16 15 15 15 15 15 14 14 13 12 12 12 12 12 12 11 11 10 10 10 10 10 10 10 10 10
3 3 4 4 4 4 4 3 3 4 4 4 4 5 5 6 7 8 8 8 9 9 8 6 5 5 6 8 10 12 15 15 15 14 14 11 8 7 9 10 11 12 13 14 14 14 15 16 17 19 20 20 20 19 19 19 18 18 17 17 16 16 16 15 15 15 15 14 13 13 12 12 12 12 12 12 11 11 11 10 10 10 10 10 10 10
3 3 4 4 4 4 3 3 3 3 3 3 4 4 4 5 5 5 6 7 8 8 7 6 5 5 4 4 6 10 13 14 15 15 14 12 8 6 9 9 9 10 11 12 12 12 13 15 16 17 19 19 19 19 19 19 18 18 18 18 17 17 17 16 16 16 15 14 14 13 13 13 12 12 12 12 12 12 11 11 11 10 10 10 10 10
3 3 3 3 3 3 3 3 2 2 2 2 3 4 4 4 4 4 5 6 7 7 7 6 5 5 4 4 5 8 10 12 14 14 13 12 9 7 9 8 8 8 9 8 8 9 12 14 16 17 18 19 19 19 19 18 18 18 18 18 18 18 18 17 17 16 16 15 14 13 13 13 13 13 13 12 12 12 12 11 11 11 11 11 10 10
3 3 3 3 3 3 3 3 2 2 2 1 1 2 3 4 4 4 4 4 5 5 5 5 5 5 4 3 3 4 6 9 12 14 14 12 9 9 10 8 8 8 8 5 3 4 7 10 13 15 17 18 18 19 19 19 18 18 18 18 18 18 18 17 17 16 15 14 14 14 13 13 13 13 13 13 13 13 13 12 12 11 11 11 11 11
2 2 2 2 2 2 2 2 2 3 3 2 1 0 1 2 3 3 3 3 4 4 4 4 4 4 4 3 2 1 2 5 9 11 13 13 10 9 10 9 9 10 9 7 3 2 2 4 6 9 11 13 15 17 18 19 19 18 18 17 17 17 16 16 16 15 14 14 13 14 13 13 13 13 13 13 13 13 13 13 13 12 11 11 11 11
2 2 2 2 2 2 2 2 2 2 3 2 2 1 1 1 1 1 1 2 3 4 3 3 3 4 5 5 4 2 0 3 5 7 11 12 11 11 12 11 10 11 11 11 7 3 2 1 2 3 5 7 10 13 15 17 18 18 17 16 15 14 13 14 14 14 13 13 13 14 13 13 13 13 13 13 13 13 14 14 14 13 12 12 11 11
2 2 2 2 2 2 2 2 2 2 3 2 2 2 2 1 1 0 0 1 2 3 4 3 3 3 4 5 5 4 4 4 3 4 7 9 10 11 12 12 11 11 12 13 12 9 6 3 3 3 5 6 8 9 11 14 16 17 17 16 14 12 12 12 12 12 12 13 14 14 14 13 13 13 13 13 13 14 14 15 15 14 13 13 12 11
2 2 2 2 2 2 2 2 2 3 3 3 2 2 2 2 2 1 1 1 1 2 3 3 3 3 3 4 4 5 6 7 5 4 5 8 9 9 10 11 11 11 11 12 12 11 9 8 7 5 5 7 8 9 10 11 13 15 16 16 14 12 11 12 12 11 11 13 14 14 14 14 14 14 13 13 13 14 14 15 16 16 15 13 12 11
3 3 3 3 2 2 2 2 2 3 3 3 3 3 3 3 3 3 3 3 3 3 3 3 4 4 4 4 4 4 4 7 7 6 6 8 9 10 9 10 10 10 9 9 9 8 7 8 8 7 5 5 7 9 10 11 11 12 14 15 15 15 14 14 13 12 12 13 13 12 13 13 13 12 13 13 13 13 14 15 16 16 16 15 13 12
3 3 3 3 3 3 3 3 3 4 4 4 4 5 5 5 5 6 6 6 5 5 5 5 5 6 6 6 6 5 6 8 8 8 7 8 9 10 9 9 9 9 8 7 7 6 6 6 7 7 6 5 5 6 8 10 11 11 12 14 16 16 17 16 16 15 14 12 11 11 11 11 11 11 12 12 13 14 15 15 16 16 16 15 15 13
3 3 4 4 4 4 4 4 4 5 5 5 6 6 6 7 7 7 7 7 7 7 7 6 6 6 7 8 8 9 10 10 10 9 9 9 9 10 11 10 10 9 8 7 6 6 6 6 5 5 6 7 6 5 5 8 10 10 12 13 15 16 16 16 16 16 16 14 12 11 11 11 11 11 11 13 15 16 16 16 16 16 16 16 16 15
4 4 4 4 5 5 5 5 5 5 6 6 6 7 7 8 8 8 8 9 8 8 8 8 7 7 7 8 8 9 10 10 10 10 10 10 10 10 11 11 11 10 10 9 7 6 6 6 5 5 5 6 7 6 6 7 8 9 10 12 14 15 16 16 16 17 17 15 13 12 11 12 13 12 12 13 14 15 15 15 16 17 17 17 16 16
4 4 4 4 5 5 5 5 5 6 6 6 7 7 8 9 9 9 9 10 10 9 9 9 9 8 8 8 8 8 9 9 9 10 10 10 10 10 11 11 11 11 11 11 10 8 7 6 6 6 5 5 5 6 7 8 7 7 8 10 12 14 16 16 17 17 17 16 15 13 13 14 16 16 15 14 15 14 13 13 14 15 15 16 15 15
4 4 4 4 4 5 6 6 6 6 6 7 7 8 9 9 10 10 10 10 10 10 10 10 9 9 9 9 9 9 9 9 9 9 9 9 9 10 10 11 12 12 12 12 11 10 9 7 7 7 6 5 4 4 5 7 8 8 8 8 9 11 15 17 17 18 18 17 16 14 13 14 16 17 17 17 16 15 14 13 12 13 14 14 14 13
5 5 4 4 5 6 6 7 7 7 7 7 8 8 9 9 10 10 10 10 10 10 10 10 10 10 10 10 10 10 9 9 9 9 9 9 9 9 10 11 12 12 12 12 12 12 11 8 7 7 7 6 5 4 4 6 8 9 9 8 7 8 11 14 17 18 19 18 18 16 15 14 15 16 17 18 18 18 16 14 12 12 14 14 14 13
5 5 4 5 6 6 6 6 6 7 7 7 8 8 9 9 9 9 10 10 10 11 10 10 10 10 11 11 11 11 11 11 10 10 10 9 9 9 9 10 11 12 12 12 12 12 12 10 9 8 7 7 6 6 6 6 7 9 10 9 7 6 7 11 15 18 19 20 19 18 17 15 15 15 16 17 18 19 19 19 17 16 15 15 15 15
6 6 5 6 7 7 6 6 7 7 8 8 9 9 9 8 8 8 9 9 9 10 10 11 10 10 9 8 9 11 12 12 12 11 11 11 10 10 10 10 10 11 11 11 11 11 12 12 11 10 9 8 7 7 7 7 7 8 10 10 8 6 4 7 11 15 18 19 20 20 19 17 15 15 15 16 17 19 21 22 22 22 21 19 19 18
7 7 8 8 9 8 8 8 8 8 8 9 10 10 10 9 9 9 9 8 8 8 10 10 10 10 8 8 8 8 10 12 13 13 12 12 12 11 11 11 11 11 11 11 10 9 10 10 11 12 11 10 10 9 9 8 8 8 9 10 11 10 8 7 9 12 14 17 18 19 19 18 17 16 17 17 18 20 21 22 23 24 24 23 22 22
8 9 11 11 11 10 10 10 10 10 10 10 11 11 12 12 11 10 10 9 8 8 9 10 9 7 7 7 7 7 7 10 12 13 13 13 13 13 13 12 12 12 12 12 12 10 8 8 8 10 11 12 12 12 11 10 10 9 9 10 12 13 13 9 9 11 12 14 16 18 19 19 18 18 18 19 19 20 21 21 22 23 24 24 24 24
11 11 12 13 13 12 12 12 12 12 12 12 12 12 13 13 13 12 12 11 9 8 9 10 8 6 6 7 7 6 6 7 9 12 13 14 14 14 14 14 14 14 14 14 14 13 12 11 9 8 9 10 12 13 13 12 11 11 11 10 11 12 13 13 12 13 14 14 15 16 18 18 18 18 18 18 18 19 20 21 22 22 23 24 24 25
11 10 10 11 12 12 12 12 13 13 13 13 12 12 12 13 14 14 13 12 11 10 10 10 9 8 7 8 7 7 7 7 7 8 11 13 14 14 15 15 15 15 15 15 15 15 16 16 14 12 10 9 10 11 12 13 13 12 12 11 11 11 12 13 14 15 16 15 15 16 17 17 18 18 18 17 16 16 17 19 21 22 23 23 24 25
10 9 8 9 10 11 11 11 11 11 10 10 10 9 10 12 14 14 14 13 12 11 10 9 8 8 8 9 8 8 8 8 7 7 8 11 13 14 14 15 15 15 16 16 16 16 17 18 18 18 17 14 12 11 11 11 12 13 13 13 12 12 12 13 14 14 16 17 17 18 18 18 18 17 16 14 14 14 15 16 19 21 23 23 24 24
9 9 9 9 9 9 9 9 9 9 9 9 9 8 8 11 13 13 12 12 12 11 10 9 8 8 9 9 9 9 8 8 8 8 8 10 12 13 14 14 14 15 15 16 16 16 17 18 19 21 21 20 18 14 13 12 12 12 12 13 13 13 13 13 13 14 14 16 18 20 21 21 20 18 16 14 13 14 14 15 16 19 21 23 24 25
10 10 10 9 9 9 9 9 9 9 9 9 8 8 8 10 12 12 11 11 11 11 10 10 9 9 9 9 9 8 8 8 8 8 9 10 12 13 13 13 13 12 12 12 12 13 14 15 18 20 22 23 23 21 18 15 13 12 12 13 14 14 14 13 14 14 14 15 17 20 22 22 22 20 17 16 15 15 15 15 16 17 20 22 23 24
10 10 10 10 10 10 9 9 9 9 9 8 8 8 8 8 10 11 11 11 11 11 11 11 10 10 10 10 9 9 9 9 9 9 9 11 12 13 13 12 11 10 8 7 7 7 7 8 10 13 18 21 22 22 22 19 16 14 13 14 15 15 14 14 14 14 14 15 16 18 21 22 22 21 20 18 16 15 15 16 16 17 19 20 22 23
Wind_Direction
279 280 279 276 273 270 266 263 262 264 268 272 274 275 275 276 276 275 272 268 262 254 243 236 233 233 236 237 238 241 245 248 250 250 246 240 234 230 228 226 222 217 214 214 212 208 203 198 190 185 184 184 184 180 175 167 156 145 147 158 164 168 172 176 179 182 182 183 186 189 192 192 190 187 185 186 187 189 191 195 200 206 212 221 222 212
280 278 276 273 270 266 262 260 261 265 271 273 273 273 274 276 277 275 271 266 260 251 241 235 233 234 238 239 240 241 244 245 244 241 236 230 223 218 217 217 216 214 214 217 221 223 222 217 208 199 191 187 184 181 181 177 170 166 170 172 174 175 177 180 185 188 189 188 188 191 193 192 191 190 189 190 191 193 196 200 203 208 216 221 215 199
274 271 267 264 261 257 255 257 263 269 273 273 273 273 274 275 274 271 267 263 258 251 241 236 233 234 237 240 242 241 240 237 234 230 225 220 215 212 211 212 213 214 216 221 227 232 235 232 224 212 200 191 184 182 182 183 182 180 180 183 185 187 186 185 186 186 185 184 183 184 185 187 190 191 191 192 194 197 201 204 208 211 214 215 206 192
276 272 266 265 259 254 254 258 264 267 268 268 269 270 271 269 265 262 261 260 256 249 242 240 238 238 239 242 241 238 233 227 224 221 216 212 209 208 208 210 212 216 220 225 231 235 237 234 226 215 205 196 190 188 192 197 195 189 186 190 194 195 193 190 187 184 181 180 180 181 181 183 186 187 188 190 194 199 204 208 210 211 211 209 200 188
286 283 280 281 276 270 268 269 269 268 267 266 266 266 264 259 255 255 258 257 252 244 240 240 241 243 245 245 240 231 223 218 215 212 209 207 205 205 207 209 213 218 223 228 231 231 228 224 218 213 207 202 198 197 199 201 198 193 192 195 197 198 198 196 193 188 184 183 183 183 183 182 183 184 186 190 195 201 206 211 213 213 213 209 201 192
285 285 288 291 288 284 283 282 279 274 270 266 264 261 255 250 249 250 252 250 245 240 239 240 243 247 249 246 236 222 213 209 207 206 204 203 202 203 206 209 214 220 225 227 225 221 216 212 209 207 206 204 202 199 198 196 192 190 190 191 192 194 196 197 196 193 189 187 186 186 185 186 188 190 193 197 201 206 211 214 216 217 218 217 212 206
282 283 286 290 289 287 286 283 279 274 268 263 259 255 251 248 247 247 246 245 242 239 240 242 245 247 245 236 223 211 203 200 199 200 200 199 199 202 206 210 215 220 223 222 219 214 208 205 202 201 200 198 196 194 190 187 185 184 185 186 188 190 192 195 197 197 195 193 192 192 192 194 197 201 206 210 214 217 219 219 219 220 224 227 227 224
284 285 285 285 285 285 283 279 274 269 264 256 252 250 249 247 245 244 245 244 241 239 240 242 244 241 231 215 201 194 193 192 192 193 194 195 196 199 205 210 215 218 219 217 213 209 205 202 199 196 194 193 191 189 186 183 181 182 183 186 188 191 193 195 197 198 198 198 199 200 202 206 210 215 220 224 226 227 227 225 223 224 228 233 238 240
282 283 282 280 278 276 275 273 271 267 260 251 245 242 243 243 243 241 240 239 237 237 237 238 236 229 215 198 188 184 185 186 187 187 189 191 193 196 200 204 209 212 212 210 207 204 202 200 198 195 194 194 194 193 190 188 185 184 186 189 193 196 198 199 199 199 200 203 207 211 216 222 227 230 233 234 235 234 234 233 233 233 235 238 242 246
274 274 274 274 272 268 263 261 263 262 255 245 237 235 235 235 235 236 236 235 234 233 232 230 224 214 202 191 183 179 180 183 184 184 183 183 184 185 186 188 191 197 201 202 202 201 200 197 195 195 195 197 200 202 203 201 198 195 194 196 199 202 204 205 205 205 207 211 217 224 231 236 239 241 242 242 241 241 242 243 244 245 245 244 244 244
268 268 267 265 265 262 255 248 248 251 248 240 233 231 231 230 228 227 226 231 232 229 225 222 215 205 194 186 182 180 180 181 182 182 180 176 173 173 173 175 178 183 191 197 201 203 201 198 195 193 195 198 205 212 216 216 214 212 209 207 207 208 210 211 213 215 218 222 229 236 241 245 247 249 249 250 250 251 251 252 253 253 252 249 246 242
266 263 262 259 257 255 252 248 247 247 243 234 229 231 233 231 228 224 221 225 226 222 216 213 209 202 192 185 182 182 183 184 185 185 184 182 181 180 180 181 182 182 185 191 197 201 202 201 198 196 196 199 207 215 220 222 223 224 223 221 219 219 219 219 221 224 229 234 239 244 248 251 254 255 257 258 259 259 259 258 258 257 255 252 247 241
265 261 258 256 252 248 246 245 245 243 235 228 224 226 230 230 227 223 221 222 222 218 213 208 204 200 195 190 186 185 186 188 190 192 192 193 194 193 192 192 192 192 192 195 198 202 205 205 203 201 200 202 209 216 220 223 227 229 229 229 229 230 231 232 234 237 241 245 249 252 255 257 259 261 262 263 263 263 262 261 259 257 255 252 247 240
265 259 254 251 247 242 238 234 231 230 229 228 227 228 232 231 228 222 217 218 221 220 214 207 202 200 196 192 189 189 189 191 194 196 198 200 202 202 202 201 201 201 200 201 203 206 210 211 210 208 205 206 210 215 218 222 227 230 232 233 234 236 239 242 245 248 251 253 255 258 260 261 263 264 264 265 264 264 263 261 259 256 254 250 245 238
260 253 251 251 249 245 238 233 231 232 234 235 232 231 232 234 230 221 213 212 216 216 210 204 203 202 199 194 191 191 192 193 195 197 200 203 205 207 207 206 207 208 207 206 208 212 217 220 219 217 213 209 211 214 216 219 224 229 233 236 238 240 243 247 251 253 255 257 258 260 261 263 264 265 265 265 265 264 262 260 257 255 251 247 242 235
258 251 251 255 255 251 246 242 241 241 242 242 240 237 236 234 229 219 210 208 207 204 195 193 197 203 205 202 197 194 194 195 196 198 200 201 204 207 208 208 209 211 213 213 215 219 223 227 229 226 220 215 215 217 218 219 224 229 233 236 239 242 246 249 252 255 256 257 258 259 260 262 264 266 267 267 267 265 262 258 256 252 248 243 237 231
261 254 254 260 263 260 256 253 251 249 249 249 247 243 237 233 226 218 210 207 202 196 191 188 187 195 209 211 207 202 199 197 198 200 202 202 204 206 208 209 210 213 216 220 223 227 230 233 233 231 227 224 223 223 223 224 227 231 234 237 240 243 246 249 252 254 256 257 257 258 258 261 263 266 269 271 271 268 262 257 253 249 244 237 231 225
265 258 258 264 268 268 265 263 260 258 257 253 251 248 243 237 230 221 211 206 200 196 196 196 197 194 187 200 211 212 207 203 203 204 205 205 207 209 210 211 214 217 220 224 229 233 236 237 236 233 231 230 230 229 228 228 230 233 237 239 241 243 246 248 250 252 254 255 255 255 256 257 260 263 267 271 272 268 260 253 249 243 236 228 222 216
271 266 265 268 273 275 274 271 269 265 261 256 253 249 242 237 231 222 212 208 204 201 200 202 206 207 202 200 207 212 212 209 209 210 209 212 215 215 215 215 218 222 225 228 233 237 239 239 237 235 233 233 233 232 232 233 234 237 239 240 242 244 247 249 251 252 252 252 252 252 253 254 256 259 263 268 269 265 256 248 242 236 229 222 216 210
279 277 274 274 279 281 278 275 274 273 269 266 260 250 238 233 227 219 213 211 209 207 206 206 210 213 214 214 214 214 214 213 213 214 215 220 223 223 222 221 223 226 229 232 235 238 238 237 237 235 234 234 234 234 235 236 237 239 241 242 244 246 249 250 252 253 252 252 251 250 250 251 252 255 258 262 263 259 251 243 237 230 224 218 212 207
278 283 279 274 278 282 281 280 281 281 278 273 261 248 237 231 225 219 217 214 212 211 211 212 213 215 217 218 218 217 216 213 211 212 217 223 228 230 229 227 227 228 230 234 237 238 236 235 234 234 234 234 235 235 237 238 240 242 244 245 247 248 249 251 251 252 252 252 251 250 249 249 249 250 252 255 255 252 245 239 232 225 217 212 209 206
266 277 280 275 272 273 276 280 279 277 276 270 252 238 233 230 225 221 220 217 215 214 215 216 218 219 219 219 219 219 219 214 210 211 216 222 232 235 234 231 229 229 229 234 238 237 234 232 232 233 233 234 235 237 238 240 243 245 246 247 248 249 249 250 250 251 252 252 252 251 249 247 246 245 246 248 248 245 240 234 228 220 212 207 205 204
271 279 286 289 285 278 274 270 269 268 264 250 232 227 233 230 226 223 221 219 216 215 215 217 221 224 224 221 220 220 220 216 214 214 216 223 232 236 236 232 230 229 228 232 237 237 234 232 232 233 234 235 236 238 240 242 245 247 247 247 247 247 248 248 249 250 252 253 252 250 247 245 243 241 240 241 241 239 235 230 223 215 209 204 202 202
298 297 299 302 302 297 288 274 264 258 255 243 232 227 228 230 232 231 225 222 220 219 221 224 227 229 229 225 221 219 219 218 216 215 217 222 232 238 237 233 230 228 228 232 236 237 235 234 234 235 236 237 238 240 242 245 247 248 248 247 246 245 246 246 248 249 251 252 252 249 245 242 239 238 236 236 235 233 232 227 220 213 207 203 201 200
338 329 323 320 318 315 306 288 271 261 255 247 236 229 227 229 232 234 236 233 228 225 225 224 225 230 234 231 227 223 221 222 220 218 217 222 235 243 242 237 230 226 227 234 239 239 237 236 236 237 238 239 241 243 245 247 248 249 248 247 245 244 244 245 246 248 250 250 249 246 242 239 237 235 234 232 231 230 229 225 219 213 207 204 201 200
1 351 344 338 332 325 315 299 282 271 262 253 241 231 225 225 229 232 230 227 222 218 213 210 213 224 232 234 234 232 229 228 227 224 220 223 238 249 246 241 233 227 227 236 242 242 240 238 238 240 240 242 243 245 247 249 250 249 248 246 244 243 242 243 244 246 248 247 245 242 240 237 235 233 231 230 229 227 226 224 219 214 210 206 204 201
5 359 353 347 340 330 317 301 286 272 262 253 244 235 226 224 225 223 216 215 213 207 198 200 210 220 226 234 237 237 236 232 230 229 226 225 234 250 249 241 233 229 231 238 244 245 241 239 239 241 243 244 246 247 248 249 249 249 247 244 242 241 241 241 242 244 245 244 242 240 238 235 233 231 229 228 226 225 224 222 219 215 212 210 209 207
354 352 350 347 343 338 329 314 294 275 257 245 234 227 222 220 214 209 208 214 212 204 198 205 214 218 215 218 230 238 240 235 231 229 227 221 226 248 248 238 230 228 230 237 245 248 244 241 241 243 246 248 249 249 249 249 248 247 245 243 241 240 239 240 241 242 243 241 239 238 236 233 231 229 228 227 225 224 223 221 218 215 213 213 213 213
336 339 340 342 348 353 353 343 325 304 279 254 234 221 212 204 200 209 223 227 217 206 203 212 219 221 219 218 232 244 246 241 234 228 224 215 221 240 243 234 225 222 224 231 247 256 253 248 246 247 249 251 251 250 248 247 246 244 244 243 243 242 241 241 242 242 241 238 237 236 234 232 229 227 226 225 224 223 222 221 218 214 213 213 213 214
330 333 337 341 352 8 17 17 5 350 339 317 263 225 210 197 195 203 220 227 218 208 209 218 222 219 212 217 236 248 246 240 236 229 219 212 220 236 237 232 225 219 211 211 239 264 257 253 252 252 251 251 250 248 246 244 242 242 242 243 244 245 245 244 244 242 239 236 234 233 232 230 227 226 225 224 223 222 221 220 218 215 213 212 213 213
327 338 348 354 6 20 33 36 29 20 15 17 15 206 197 193 190 190 191 199 203 209 221 225 222 214 206 207 222 233 218 231 234 229 218 209 216 232 232 228 225 221 212 199 207 263 238 240 255 258 253 250 248 246 244 241 239 238 239 241 243 244 245 244 242 238 234 232 231 231 229 227 226 225 224 223 222 221 219 218 216 214 213 212 213 213
315 325 340 355 10 27 36 40 37 35 35 40 46 61 91 133 157 175 182 190 193 200 217 230 228 218 213 221 235 249 279 261 244 226 217 209 216 229 232 228 225 223 222 214 217 235 262 234 268 278 270 257 251 248 244 241 238 236 236 237 239 240 241 240 237 233 227 226 225 225 225 224 224 224 223 223 221 220 218 216 214 212 212 212 212 213
314 323 332 347 1 16 25 28 29 29 31 35 39 43 43 44 43 37 222 208 202 201 204 218 230 231 228 234 245 261 275 284 275 234 217 213 219 228 233 232 229 227 226 224 224 230 248 259 278 293 292 279 268 260 252 245 239 236 234 234 234 234 234 233 230 225 222 220 219 219 219 219 220 221 222 222 221 219 217 215 213 212 212 213 213 212
309 316 324 333 342 353 1 5 7 8 9 10 12 14 12 3 355 344 331 305 260 231 221 219 230 244 245 244 252 264 272 271 266 248 228 219 220 227 232 230 228 226 226 225 227 232 242 250 260 273 283 281 277 271 262 251 243 237 233 231 229 227 227 225 220 217 217 218 218 218 218 218 219 219 220 219 219 218 216 215 214 213 213 215 214 212
297 301 302 307 312 317 322 326 331 336 338 336 333 329 326 322 320 318 315 312 303 287 269 253 250 252 254 252 257 267 274 269 262 253 243 228 226 229 232 229 227 225 222 224 226 230 241 249 252 254 261 268 273 272 267 258 247 239 233 231 228 225 225 222 217 213 214 217 218 219 220 220 220 219 218 217 216 216 215 215 215 215 215 216 216 214
267 269 275 283 286 285 289 295 299 303 307 309 307 306 305 306 306 307 307 306 303 298 290 280 270 263 259 255 255 258 264 266 264 259 252 241 234 232 232 232 231 228 222 222 223 228 237 245 246 246 248 251 255 259 261 259 251 240 234 231 229 229 229 226 221 216 215 216 218 219 220 220 219 218 217 215 213 212 211 213 215 216 218 219 220 218
249 248 251 262 267 268 271 278 282 286 288 292 294 295 295 296 297 299 300 300 299 297 295 289 283 276 270 264 260 257 258 263 265 263 257 251 243 235 231 235 238 234 225 221 223 227 232 239 244 244 243 244 244 241 240 253 249 240 233 231 229 229 229 227 223 219 218 218 219 220 220 219 217 216 216 216 214 212 210 210 211 214 217 221 224 224
251 253 250 256 262 265 265 268 273 276 278 283 286 288 288 289 290 291 293 294 295 294 293 291 288 284 279 274 269 265 263 263 264 262 258 254 247 239 233 236 239 239 233 227 224 226 228 235 240 242 241 240 238 234 228 239 237 232 230 231 230 229 227 225 221 218 218 218 219 221 222 221 219 217 217 218 217 215 214 214 214 213 214 218 223 226
247 251 253 254 256 257 257 260 263 267 270 274 277 279 281 282 283 285 286 288 289 289 289 288 287 286 284 281 277 273 269 266 264 261 259 255 249 243 237 236 238 240 238 234 230 227 226 232 236 239 240 239 236 232 233 233 227 220 221 228 231 231 228 224 220 217 217 218 220 222 225 227 225 222 220 220 219 217 217 218 218 217 216 217 221 225
242 248 251 248 247 249 252 252 256 260 264 267 270 273 276 279 281 282 283 283 283 283 283 283 283 283 282 281 278 276 273 269 266 263 260 256 251 246 241 237 238 240 241 238 234 230 227 233 240 244 246 247 241 233 230 231 226 218 211 216 224 231 232 228 223 219 218 219 221 223 227 230 230 227 225 223 221 219 218 219 219 219 217 217 219 222
242 246 249 248 251 255 254 252 254 258 260 264 268 271 274 277 279 280 280 280 279 278 278 279 279 280 280 279 277 275 273 270 267 265 262 258 253 248 244 241 241 241 242 241 238 233 229 233 241 246 249 251 250 244 236 233 231 226 218 214 216 224 230 232 229 225 222 222 223 225 229 233 234 233 230 228 225 223 220 219 219 219 218 217 217 218
245 248 250 253 257 259 258 260 260 260 261 263 265 268 272 275 277 278 278 278 277 276 275 274 274 276 279 279 278 275 272 269 266 264 262 258 255 251 247 245 244 244 244 243 241 238 234 233 237 243 246 248 249 248 245 240 238 235 228 221 217 222 231 236 235 231 227 227 228 229 231 234 236 235 232 230 228 226 224 222 220 219 219 219 220 220
249 251 252 257 264 269 271 269 266 264 264 265 267 269 272 273 275 275 275 273 273 274 275 273 272 271 272 272 274 275 274 270 265 262 260 257 255 252 249 247 246 246 245 244 244 243 242 239 238 240 243 244 245 246 247 243 239 237 234 225 218 214 218 227 233 235 232 231 230 231 232 233 233 232 231 230 229 229 230 228 227 226 226 225 225 226
251 253 255 260 268 274 276 274 272 272 272 270 270 271 273 274 274 273 272 268 268 271 274 274 273 270 268 266 265 266 270 271 267 261 257 255 253 252 250 249 249 248 247 244 242 243 246 245 244 243 243 243 243 244 246 245 242 237 233 229 224 221 221 226 233 236 236 233 232 232 232 231 231 231 232 232 232 233 234 233 233 232 232 233 233 232
253 255 260 264 268 270 268 269 273 277 278 277 275 274 273 273 272 271 269 267 266 268 271 273 272 268 264 263 263 260 257 268 269 265 258 254 252 251 250 249 249 249 249 247 244 241 241 244 247 247 246 245 244 243 244 245 245 243 239 234 232 230 229 232 238 240 237 233 232 232 231 230 230 231 233 235 236 237 238 237 237 236 236 236 236 236
256 259 263 267 268 268 267 268 272 276 277 277 275 272 270 269 268 267 267 266 264 264 268 271 267 260 258 262 263 260 256 262 267 268 264 256 251 249 249 249 249 250 250 250 248 245 242 240 244 248 248 247 247 245 243 241 242 243 241 237 235 234 234 235 237 238 237 234 232 231 231 230 230 230 233 236 240 242 243 242 241 239 238 237 237 238
256 258 260 263 265 266 266 269 271 274 275 274 272 268 265 266 266 266 265 263 261 261 264 267 262 255 253 259 261 259 257 257 256 261 266 263 257 251 249 249 250 250 251 251 251 250 248 243 241 241 242 244 246 247 245 241 239 238 239 237 235 233 233 233 234 235 235 232 230 230 232 229 227 228 231 235 238 242 245 245 244 243 241 240 239 239
255 256 256 258 262 265 266 266 267 267 267 267 267 264 261 264 266 265 264 262 260 258 258 258 255 251 252 254 255 254 254 256 256 254 255 261 261 258 253 250 250 250 251 252 252 253 253 251 248 243 241 240 242 246 246 241 238 236 236 236 235 234 234 233 233 234 234 232 231 231 231 228 225 225 227 232 236 240 242 245 246 247 246 244 242 241
253 254 256 257 259 260 261 261 260 260 261 263 264 262 257 263 266 265 262 260 257 254 251 249 249 251 253 254 254 252 251 252 253 251 249 252 256 258 256 253 251 250 251 253 255 257 258 258 255 252 248 243 240 241 244 243 239 236 235 234 234 234 234 235 234 232 232 231 232 233 233 231 229 227 226 230 235 239 240 242 244 247 248 247 245 244
254 254 254 255 256 257 258 259 257 257 259 261 261 258 255 260 264 265 262 258 254 251 248 246 247 250 253 255 255 252 250 249 249 248 245 246 250 253 251 249 247 246 249 254 260 263 266 266 265 262 257 251 245 240 238 239 240 238 236 235 234 233 233 234 234 232 230 230 232 234 235 234 232 230 229 232 236 240 242 242 242 244 247 249 248 247
253 253 253 252 252 254 255 255 255 255 256 258 258 256 254 255 260 262 261 257 254 251 249 247 246 247 250 253 254 253 250 249 248 247 244 245 247 247 243 240 237 233 234 244 252 257 261 268 269 267 263 258 252 244 237 234 234 235 235 235 234 232 232 233 234 232 229 229 231 234 235 234 233 231 230 231 234 239 242 242 241 241 243 246 248 249